TLEEKTOWN Weather Reports


time (UTC)temp
F
wind
direction
speed
knots
gust
knots
rain 1hr
in
rain 24hr
in
rain mn
in
humidity
%
barometer
mb
20260507140512 53 0 0.0 0.0 0.00 0.18 0.06 76 1013.1
20260507140032 53 0 0.0 0.0 0.00 0.18 0.06 76 1013.0
20260507135510 53 0 0.0 0.0 0.00 0.31 0.06 79 1013.1
20260507135009 52 0 0.0 0.9 0.00 0.31 0.06 74 1013.1
20260507134528 52 0 0.0 0.9 0.00 0.31 0.06 76 1013.2
20260507134010 52 0 0.0 0.9 0.00 0.31 0.06 75 1013.2
20260507133511 52 0 0.0 0.0 0.00 0.31 0.06 75 1013.0
20260507133030 53 0 0.0 0.0 0.00 0.31 0.06 76 1013.1
20260507132507 53 0 0.0 0.0 0.00 0.31 0.06 76 1013.3
20260507132011 52 0 0.0 0.0 0.00 0.31 0.06 75 1013.2
20260507131532 53 0 0.0 0.0 0.00 0.31 0.06 78 1012.9
20260507131009 53 0 0.0 0.9 0.00 0.31 0.06 80 1012.9
20260507130511 53 0 0.0 0.9 0.00 0.31 0.06 82 1012.9
20260507130036 53 0 0.0 0.9 0.00 0.31 0.06 82 1012.9
20260507125509 52 0 0.0 0.9 0.00 0.34 0.06 86 1013.0
20260507125008 52 0 0.0 0.0 0.00 0.34 0.06 87 1013.0
20260507124530 52 0 0.0 0.0 0.00 0.34 0.06 86 1013.0
20260507124010 52 0 0.0 0.0 0.00 0.34 0.06 86 1013.0
20260507123511 52 0 0.0 0.0 0.00 0.34 0.06 86 1012.9
20260507123039 52 0 0.0 0.0 0.00 0.34 0.06 87 1012.9
20260507122511 52 0 0.0 0.0 0.00 0.34 0.06 87 1012.8
20260507122012 51 0 0.0 0.0 0.00 0.34 0.06 87 1012.8
20260507121530 51 0 0.0 0.0 0.00 0.34 0.06 86 1012.9
20260507121011 51 0 0.0 0.0 0.00 0.34 0.06 86 1012.8
20260507120508 51 0 0.0 0.0 0.00 0.34 0.06 87 1012.9
20260507120030 51 0 0.0 0.0 0.00 0.34 0.06 88 1012.7
20260507115509 51 0 0.0 0.9 0.00 0.34 0.06 88 1012.5
20260507115012 51 0 0.0 0.9 0.00 0.34 0.06 88 1012.7
20260507114530 51 0 0.0 0.0 0.00 0.34 0.06 89 1012.7
20260507114011 51 0 0.0 0.0 0.00 0.34 0.06 89 1012.7
20260507113509 51 0 0.0 0.0 0.00 0.34 0.06 89 1012.5
20260507113029 51 0 0.0 0.0 0.00 0.34 0.06 90 1012.6
20260507112511 51 0 0.0 0.0 0.00 0.34 0.06 90 1012.4
20260507112012 51 0 0.0 0.0 0.00 0.34 0.06 90 1012.4
20260507111535 51 0 0.0 0.0 0.00 0.34 0.06 90 1012.4
20260507111012 51 0 0.0 0.0 0.00 0.34 0.06 90 1012.5
20260507110507 52 0 0.0 0.0 0.00 0.34 0.06 91 1012.5
20260507110032 52 0 0.0 0.0 0.00 0.34 0.06 92 1012.4
20260507105508 52 0 0.0 0.0 0.00 0.34 0.06 92 1012.5
20260507105010 52 0 0.0 0.0 0.00 0.34 0.06 92 1012.4
20260507104530 52 0 0.0 0.0 0.00 0.34 0.06 93 1012.2
20260507104012 52 0 0.0 0.0 0.00 0.34 0.06 93 1012.2
20260507103511 53 0 0.0 0.0 0.00 0.34 0.06 93 1012.2
20260507103028 53 0 0.0 0.0 0.00 0.34 0.06 93 1012.2
20260507102509 53 0 0.0 0.0 0.00 0.34 0.06 93 1012.1
20260507102011 53 0 0.0 0.0 0.00 0.34 0.06 93 1012.1
20260507101529 53 0 0.0 0.0 0.00 0.34 0.06 93 1012.0
20260507101011 53 0 0.0 0.0 0.00 0.34 0.06 93 1012.1
20260507100516 53 0 0.0 0.0 0.00 0.34 0.06 93 1012.0
20260507100032 53 0 0.0 0.0 0.00 0.34 0.06 93 1011.9
20260507095509 53 0 0.0 0.0 0.00 0.34 0.06 93 1011.9
20260507095011 53 0 0.0 0.0 0.00 0.34 0.06 93 1011.9
20260507094528 53 0 0.0 0.0 0.00 0.34 0.06 93 1011.9
20260507094008 53 0 0.0 0.0 0.00 0.34 0.06 93 1012.0
20260507093508 53 0 0.0 0.0 0.00 0.34 0.06 93 1011.9
20260507093040 53 0 0.0 0.0 0.00 0.34 0.06 93 1011.7
20260507092512 53 0 0.0 0.0 0.00 0.34 0.06 93 1011.5
20260507092011 53 0 0.0 0.0 0.00 0.34 0.06 93 1011.5
20260507091530 53 0 0.0 0.0 0.00 0.34 0.06 93 1011.6
20260507091012 53 0 0.0 0.0 0.00 0.34 0.06 93 1011.6
20260507090511 53 0 0.0 0.0 0.00 0.34 0.06 93 1011.8
20260507090029 53 0 0.0 0.0 0.00 0.34 0.06 93 1011.9
20260507085511 53 0 0.0 0.0 0.00 0.34 0.06 93 1011.8
20260507085010 53 0 0.0 0.0 0.00 0.34 0.06 93 1011.6
20260507084530 53 0 0.0 0.0 0.00 0.34 0.06 93 1011.6
20260507084012 53 0 0.0 0.0 0.00 0.34 0.06 93 1011.6
20260507083510 53 0 0.0 0.0 0.00 0.34 0.06 93 1011.5
20260507083030 53 0 0.0 0.0 0.00 0.34 0.06 93 1011.5
20260507082507 53 0 0.0 0.0 0.00 0.34 0.06 93 1011.5
20260507082012 53 0 0.0 0.0 0.00 0.34 0.06 93 1011.4
20260507081536 53 0 0.0 0.0 0.00 0.34 0.06 92 1011.2
20260507081009 53 0 0.0 0.0 0.00 0.34 0.06 92 1011.0
20260507080513 53 0 0.0 0.0 0.00 0.34 0.06 92 1011.1
20260507080028 53 0 0.0 0.9 0.00 0.34 0.06 92 1011.0
20260507075507 53 0 0.0 0.9 0.00 0.34 0.06 92 1010.9
20260507075011 54 0 0.0 0.9 0.00 0.34 0.06 92 1010.9
20260507074532 54 0 0.0 0.0 0.00 0.34 0.06 92 1010.9
20260507074013 54 0 0.0 0.9 0.00 0.34 0.06 92 1010.9
20260507073511 54 0 0.0 0.9 0.00 0.34 0.06 92 1010.7
20260507073028 54 0 0.0 0.9 0.00 0.34 0.06 92 1010.8
20260507072510 54 0 0.0 0.9 0.00 0.34 0.06 92 1010.9
20260507072011 54 0 0.0 0.0 0.00 0.34 0.06 92 1010.9
20260507071529 55 0 0.0 0.0 0.00 0.34 0.06 92 1010.7
20260507071008 55 0 0.0 0.9 0.00 0.34 0.06 93 1010.7
20260507070515 55 0 0.0 0.9 0.00 0.34 0.06 92 1010.7
20260507070030 55 0 0.0 0.9 0.00 0.34 0.06 93 1010.7
20260507065514 55 0 0.0 0.0 0.01 0.34 0.06 93 1010.8
20260507065008 55 0 0.0 0.0 0.01 0.34 0.06 93 1010.8
20260507064530 55 0 0.0 0.0 0.01 0.34 0.06 93 1011.0
20260507064011 55 0 0.0 0.0 0.01 0.34 0.06 93 1010.8
20260507063514 55 0 0.0 0.9 0.01 0.34 0.06 93 1010.8
20260507063030 55 0 0.0 0.9 0.01 0.34 0.06 92 1010.9
20260507062512 55 0 0.0 0.0 0.01 0.34 0.06 92 1010.9
20260507062012 55 0 0.0 0.0 0.02 0.34 0.06 92 1010.7
20260507061530 56 0 0.0 0.0 0.02 0.34 0.06 92 1010.7
20260507061011 56 0 0.0 0.9 0.02 0.34 0.06 92 1010.7
20260507060507 56 0 0.0 0.9 0.02 0.34 0.06 92 1010.7
20260507060028 56 0 0.0 0.0 0.03 0.34 0.06 91 1010.7
20260507055508 56 0 0.0 0.0 0.04 0.33 0.05 91 1010.9
20260507055008 56 0 0.0 0.0 0.05 0.33 0.05 91 1010.9
20260507054530 56 0 0.0 0.0 0.05 0.33 0.05 91 1010.9
20260507054012 56 0 0.0 1.7 0.05 0.33 0.05 90 1011.1
20260507053509 56 0 0.0 1.7 0.05 0.33 0.05 90 1011.1
20260507053028 57 0 0.0 0.9 0.05 0.33 0.05 90 1011.0
20260507052511 57 0 0.0 0.0 0.04 0.32 0.04 89 1011.0
20260507052012 57 0 0.0 0.0 0.04 0.32 0.04 88 1010.7
20260507051528 57 0 0.0 1.7 0.04 0.32 0.04 87 1010.6
20260507051009 58 0 0.0 1.7 0.04 0.32 0.04 86 1010.9
20260507050512 58 0 0.0 1.7 0.04 0.32 0.04 86 1011.0
20260507050036 59 0 0.0 1.7 0.03 0.31 0.03 84 1011.4
20260507045512 59 0 0.0 1.7 0.01 0.29 0.01 83 1011.4
20260507045010 59 0 0.0 0.9 0.00 0.28 0.00 82 1011.2
20260507044528 59 0 0.0 1.7 0.00 0.28 0.00 80 1011.0
20260507044009 60 0 0.0 1.7 0.00 0.28 0.00 79 1010.9
20260507043510 60 245 0.0 2.6 0.00 0.28 0.00 79 1010.8
20260507043028 60 0 0.0 3.5 0.00 0.28 0.00 78 1010.9
20260507042510 60 229 0.0 3.5 0.00 0.28 0.00 77 1011.2
20260507042008 60 0 0.0 0.9 0.00 0.28 0.00 77 1011.2
20260507041542 60 0 0.0 0.9 0.00 0.28 0.00 77 1011.1
20260507041012 61 0 0.0 1.7 0.00 0.28 0.00 78 1010.9
20260507040510 61 0 0.0 1.7 0.00 0.28 0.00 78 1010.9
20260507040027 61 0 0.0 0.9 0.00 0.28 0.00 78 1010.8
20260507035511 61 0 0.0 1.7 0.00 0.28 0.28 78 1010.5
20260507035015 61 0 0.0 1.7 0.00 0.28 0.28 77 1010.4
20260507034529 62 278 0.0 1.7 0.00 0.28 0.28 77 1010.2
20260507034007 62 0 0.0 3.5 0.00 0.28 0.28 78 1010.5
20260507033509 62 0 0.0 3.5 0.00 0.28 0.28 77 1010.4
20260507033034 62 42 0.0 1.7 0.00 0.28 0.28 78 1010.4
20260507032506 62 0 0.0 2.6 0.00 0.28 0.28 78 1010.6
20260507032013 63 0 0.0 2.6 0.00 0.28 0.28 78 1010.4
20260507031530 63 286 0.0 1.7 0.00 0.28 0.28 78 1010.4
20260507031009 63 0 0.0 0.9 0.00 0.28 0.28 78 1010.3
20260507030511 63 0 0.0 1.7 0.00 0.28 0.28 78 1010.0
20260507030030 63 0 0.0 1.7 0.00 0.28 0.28 78 1009.9
20260507025512 63 0 0.0 1.7 0.00 0.28 0.28 77 1009.9
20260507025008 63 0 0.0 1.7 0.00 0.28 0.28 77 1010.1
20260507024528 63 325 0.0 0.9 0.00 0.28 0.28 76 1010.2
20260507024014 63 0 0.0 1.7 0.00 0.28 0.28 76 1010.1
20260507023508 64 0 0.0 1.7 0.00 0.28 0.28 76 1010.0
20260507023031 64 0 0.0 1.7 0.00 0.28 0.28 77 1009.8
20260507022513 64 0 0.0 2.6 0.00 0.28 0.28 77 1009.8
20260507022011 64 0 0.0 2.6 0.00 0.28 0.28 77 1010.0
20260507021530 64 0 0.0 2.6 0.00 0.28 0.28 77 1009.9
20260507021010 64 0 0.0 1.7 0.00 0.28 0.28 77 1009.6
20260507020508 65 0 0.0 1.7 0.00 0.28 0.28 78 1009.6
20260507020030 65 0 0.0 0.9 0.00 0.28 0.28 77 1009.4
20260507015507 65 0 0.0 0.9 0.00 0.28 0.28 78 1009.1
20260507015011 65 0 0.0 2.6 0.00 0.28 0.28 78 1009.4
20260507014547 66 0 0.0 3.5 0.00 0.28 0.28 78 1009.3
20260507014011 66 0 0.0 3.5 0.00 0.28 0.28 79 1009.5
20260507013508 66 0 0.0 0.9 0.00 0.28 0.28 79 1009.7
20260507013042 66 0 0.0 1.7 0.00 0.28 0.28 78 1009.6
20260507012513 66 0 0.0 1.7 0.00 0.28 0.28 79 1009.6
20260507012013 67 66 0.0 0.9 0.00 0.28 0.28 82 1009.3
20260507011536 67 0 0.0 0.9 0.00 0.28 0.28 83 1009.5
20260507011007 67 0 0.0 0.9 0.00 0.28 0.28 82 1009.2
20260507010511 67 0 0.0 0.9 0.00 0.28 0.28 82 1009.3
20260507010033 67 0 0.0 0.0 0.00 0.28 0.28 82 1009.4
20260507005511 67 0 0.0 0.0 0.00 0.28 0.28 82 1009.5
20260507005010 67 0 0.0 0.0 0.00 0.28 0.28 82 1009.3
20260507004530 67 0 0.0 0.0 0.00 0.28 0.28 81 1009.1
20260507004011 67 0 0.0 2.6 0.00 0.28 0.28 81 1009.2
20260507003511 67 0 0.0 2.6 0.00 0.28 0.28 81 1009.1
20260507003028 67 0 0.0 2.6 0.00 0.28 0.28 81 1009.2
20260507002512 67 0 0.0 0.9 0.00 0.28 0.28 81 1009.0
20260507002011 67 0 0.0 0.9 0.00 0.28 0.28 81 1008.9
20260507001530 68 0 0.0 0.0 0.00 0.28 0.28 80 1008.8
20260507001011 68 0 0.0 0.9 0.00 0.28 0.28 80 1008.8
20260507000511 68 0 0.0 0.9 0.00 0.28 0.28 80 1009.0
20260507000031 68 0 0.0 1.7 0.00 0.28 0.28 80 1009.1
20260506235511 68 0 0.0 1.7 0.00 0.28 0.28 80 1009.0
20260506235009 68 0 0.0 1.7 0.00 0.28 0.28 80 1009.0
20260506234530 68 0 0.0 1.7 0.00 0.28 0.28 80 1009.1
20260506234010 68 0 0.0 1.7 0.00 0.28 0.28 79 1008.8
20260506233511 68 0 0.0 1.7 0.00 0.28 0.28 79 1008.8
20260506233030 68 0 0.0 0.9 0.00 0.28 0.28 79 1008.7
20260506232508 68 0 0.0 2.6 0.00 0.28 0.28 79 1008.6
20260506232010 68 0 0.0 2.6 0.00 0.28 0.28 79 1008.7
20260506231529 68 0 0.0 1.7 0.00 0.28 0.28 78 1008.5
20260506231011 69 238 0.0 2.6 0.00 0.28 0.28 78 1008.5
20260506230509 69 0 0.0 2.6 0.00 0.28 0.28 78 1008.5
20260506230030 69 0 0.9 2.6 0.00 0.28 0.28 78 1008.4
20260506225512 69 0 0.0 2.6 0.00 0.28 0.28 78 1008.3
20260506225009 69 113 0.0 2.6 0.00 0.28 0.28 78 1008.3
20260506224530 69 0 0.0 2.6 0.00 0.28 0.28 78 1008.5
20260506224008 69 0 0.0 2.6 0.00 0.28 0.28 78 1008.5
20260506223510 69 221 0.0 2.6 0.00 0.28 0.28 77 1008.4
20260506223030 69 0 0.0 2.6 0.00 0.28 0.28 77 1008.3
20260506222512 69 0 0.0 5.2 0.00 0.28 0.28 77 1008.3
20260506222011 69 0 0.0 5.2 0.00 0.28 0.28 77 1008.2
20260506221530 69 340 0.0 3.5 0.00 0.28 0.28 77 1008.2
20260506221014 69 223 0.0 3.5 0.00 0.28 0.28 77 1008.3
20260506220510 69 0 0.9 3.5 0.00 0.28 0.28 77 1008.2
20260506220030 69 120 0.0 5.2 0.00 0.28 0.28 77 1008.2
20260506215512 70 0 0.9 5.2 0.00 0.28 0.28 76 1008.3
20260506215008 70 277 0.0 3.5 0.00 0.28 0.28 77 1008.4
20260506214527 70 231 0.9 6.1 0.00 0.28 0.28 76 1008.3
20260506214008 70 0 0.0 6.1 0.00 0.28 0.28 76 1008.2
20260506213509 70 298 0.0 6.1 0.00 0.28 0.28 76 1008.4
20260506213028 70 215 0.0 3.5 0.00 0.28 0.28 76 1008.2
20260506212510 70 0 0.0 3.5 0.00 0.28 0.28 75 1008.2
20260506212012 70 256 0.0 7.0 0.00 0.28 0.28 74 1008.2
20260506211527 71 121 0.9 7.0 0.00 0.28 0.28 74 1008.1
20260506211011 71 252 0.0 6.1 0.00 0.28 0.28 76 1008.1
20260506210511 70 213 0.0 6.1 0.00 0.28 0.28 75 1008.1
20260506210036 70 224 0.9 7.8 0.00 0.28 0.28 75 1007.9
20260506205511 70 157 1.7 7.8 0.00 0.28 0.28 74 1007.7
20260506205010 70 272 1.7 8.7 0.00 0.28 0.28 75 1007.8
20260506204530 70 275 1.7 8.7 0.00 0.28 0.28 75 1008.0
20260506204010 70 129 0.9 7.0 0.00 0.28 0.28 75 1007.9
20260506203508 70 242 0.9 7.0 0.00 0.28 0.28 75 1007.8
20260506203040 70 0 0.9 7.0 0.00 0.28 0.28 75 1007.7
20260506202511 70 276 1.7 6.1 0.00 0.28 0.28 75 1008.0
20260506202013 70 96 0.9 7.8 0.00 0.28 0.28 75 1008.0
20260506201530 70 233 0.9 7.8 0.00 0.28 0.28 75 1008.0
20260506201012 70 168 1.7 8.7 0.00 0.28 0.28 75 1008.0
20260506200507 70 249 1.7 8.7 0.00 0.28 0.28 75 1008.1
20260506200029 70 224 1.7 7.0 0.00 0.28 0.28 75 1008.0
20260506195512 69 203 0.9 5.2 0.00 0.28 0.28 77 1008.0
20260506195010 69 275 0.9 7.0 0.00 0.28 0.28 76 1008.0
20260506194530 69 255 1.7 7.8 0.00 0.28 0.28 76 1008.1
20260506194009 70 257 0.9 7.8 0.00 0.28 0.28 75 1008.1
20260506193510 70 206 1.7 7.8 0.00 0.28 0.28 76 1008.1
20260506193031 70 167 0.9 7.8 0.00 0.28 0.28 76 1008.0
20260506192513 70 271 1.7 7.8 0.00 0.28 0.28 76 1008.2
20260506192011 69 209 1.7 5.2 0.00 0.28 0.28 76 1008.1
20260506191532 69 94 0.9 6.1 0.00 0.28 0.28 76 1008.1
20260506191008 69 0 1.7 6.1 0.00 0.28 0.28 77 1008.2
20260506190509 68 19 1.7 7.0 0.00 0.28 0.28 78 1008.2
20260506190029 68 83 0.9 7.0 0.00 0.28 0.28 79 1008.3
20260506185511 68 285 1.7 7.0 0.00 0.28 0.28 78 1008.3
20260506185011 68 290 0.9 6.1 0.00 0.28 0.28 79 1008.4
20260506184529 68 77 0.9 6.1 0.00 0.28 0.28 80 1008.3
20260506184010 67 0 0.0 6.1 0.00 0.28 0.28 81 1008.4
20260506183512 67 0 0.9 5.2 0.00 0.28 0.28 81 1008.5
20260506183029 67 290 0.0 9.6 0.00 0.28 0.28 80 1008.6
20260506182510 66 273 2.6 9.6 0.00 0.28 0.28 80 1008.7
20260506182012 66 244 1.7 9.6 0.00 0.28 0.28 81 1008.6
20260506181534 66 277 2.6 9.6 0.00 0.28 0.28 80 1008.5
20260506181013 66 136 1.7 7.8 0.00 0.28 0.28 81 1008.6
20260506180517 66 246 0.9 10.4 0.00 0.28 0.28 82 1008.7
20260506180038 66 95 2.6 10.4 0.00 0.28 0.28 82 1008.8
20260506175511 66 113 3.5 8.7 0.00 0.28 0.28 82 1008.8
20260506175011 65 298 1.7 8.7 0.00 0.28 0.28 83 1008.8
20260506174529 65 234 0.9 7.8 0.00 0.28 0.28 84 1008.9
20260506174009 65 114 0.0 7.8 0.00 0.28 0.28 85 1008.9
20260506173509 65 273 1.7 7.8 0.00 0.28 0.28 84 1008.8
20260506173027 65 163 0.0 3.5 0.00 0.28 0.28 86 1008.8
20260506172511 64 91 0.0 5.2 0.00 0.28 0.28 87 1009.0
20260506172017 64 344 1.7 5.2 0.00 0.28 0.28 86 1008.8
20260506171544 64 0 0.0 7.8 0.00 0.28 0.28 87 1008.9
20260506171012 63 308 1.7 7.8 0.00 0.28 0.28 87 1009.0
20260506170508 63 325 2.6 9.6 0.00 0.28 0.28 87 1009.1
20260506170027 63 242 1.7 9.6 0.00 0.28 0.28 88 1009.1
20260506165512 63 321 1.7 8.7 0.00 0.28 0.28 88 1009.2
20260506165011 63 103 1.7 8.7 0.00 0.28 0.28 89 1009.0
20260506164528 63 234 1.7 8.7 0.00 0.28 0.28 89 1009.1
20260506164011 62 0 0.9 5.2 0.00 0.28 0.28 91 1009.0
20260506163511 62 0 1.7 5.2 0.00 0.28 0.28 91 1009.2
20260506163031 62 0 0.0 7.8 0.00 0.28 0.28 91 1009.1
20260506162508 62 0 1.7 7.8 0.01 0.28 0.28 91 1009.2
20260506162015 62 0 0.9 7.0 0.01 0.28 0.28 92 1009.1
20260506161541 61 26 0.9 7.0 0.01 0.28 0.28 92 1009.1
20260506161014 61 115 0.9 7.0 0.02 0.28 0.28 92 1009.2
20260506160508 61 160 0.9 7.8 0.03 0.28 0.28 93 1009.0
20260506160028 61 60 0.9 11.3 0.04 0.28 0.28 93 1009.2
20260506155518 61 75 0.9 11.3 0.05 0.28 0.28 92 1009.2
20260506155009 61 223 1.7 11.3 0.05 0.28 0.28 93 1009.2
20260506154532 61 180 1.7 7.8 0.05 0.28 0.28 93 1009.1
20260506154008 61 120 0.9 7.8 0.06 0.28 0.28 93 1009.2
20260506153511 60 0 0.0 7.8 0.06 0.28 0.28 93 1009.5
20260506153029 60 318 0.9 10.4 0.06 0.28 0.28 93 1009.7
20260506152510 60 0 0.9 10.4 0.05 0.27 0.27 94 1009.5
20260506152011 60 0 1.7 7.8 0.06 0.27 0.27 93 1009.6
20260506151527 60 0 0.0 7.8 0.07 0.27 0.27 92 1009.7
20260506151012 60 306 1.7 7.8 0.08 0.26 0.26 92 1009.8
20260506150511 60 115 0.9 7.8 0.08 0.25 0.25 92 1009.8
20260506150030 60 0 0.9 3.5 0.08 0.24 0.24 93 1009.9
20260506145508 60 0 0.0 4.3 0.08 0.23 0.23 93 1010.1
20260506145010 60 0 0.0 5.2 0.08 0.23 0.23 93 1010.2
20260506144528 60 132 0.9 5.2 0.10 0.23 0.23 93 1010.2
20260506144009 60 156 0.9 7.8 0.10 0.22 0.22 93 1010.4
20260506143509 60 135 0.0 7.8 0.12 0.22 0.22 92 1010.3
20260506143030 60 309 0.0 5.2 0.13 0.22 0.22 93 1010.3
20260506142538 60 120 0.9 7.8 0.14 0.21 0.21 92 1010.3
20260506142010 60 0 0.0 7.8 0.16 0.21 0.21 92 1010.3
20260506141528 60 115 1.7 7.8 0.15 0.19 0.19 92 1010.3
20260506141011 60 155 0.9 3.5 0.14 0.18 0.18 92 1010.2